Location: Aghk�ilisa
(40.0189°N, 45.0097°E)
Time: 04:21:42
(UTC+00:00)

NOSS 3-2 (A) - Pass Details

Date: 21 October 2019
Orbit: 815 x 1393 km, 63.4° (Epoch: 19 November)

Event Time Altitude Azimuth Distance (km) Brightness Sun altitude
Rises 15:44:04 0° 219° (SW) 3,361 6.9 -18.2°
Reaches altitude 10° 15:46:26 10° 222° (SW) 2,464 6.2 -18.7°
Maximum altitude 15:52:05 71° 306° (NW) 958 3.6 -19.8°
Drops below altitude 10° 15:58:28 10° 31° (NNE) 2,777 5.6 -21.0°
Enters shadow 15:58:58 - 31° (NNE) 2,962 5.8 -21.1°
